Weather past 2 weeks in Mamoutzou, Mayotte

Now
73 °F

Mild.


Feels Like: 73 °F
Forecast: 74 / 79 °F
Wind: No wind

Location: Dzaoudzi / Pamanzi Mayotte

Current Time: Jul 31, 2015 at 3:05:16 AM

Latest Report: Jul 31, 2015 at 2:30 AM


Visibility: N/A

Pressure: 29.98 "Hg

Humidity: 83%

Dew point: 68 °F

Location of MamoutzouLocation

Historic Weather in Mamoutzou — Graph

°F

Mamoutzou temperature yesterday

Maximum temperature yesterday: 84 °F (at 12:00 PM)
Minimum temperature yesterday: 73 °F (at 8:30 PM)
Average temperature yesterday: 78 °F

Past Weeks' High & Low Weather Summary

 TemperatureHumidityPressure
High84 °F (Jul 18, 10:30 AM)94% (Jul 19, 2:00 AM)32.96 "Hg (Jul 19, 2:00 AM)
Low70 °F (Jul 19, 12:30 AM)54% (Jul 18, 4:30 PM)29.98 "Hg (Jul 16, 2:30 PM)
Average78 °F72%30.04 "Hg
* Reported Jul 16 2:00 AM — Jul 31 2:00 AM, Mamoutzou, Weather by CustomWeather, © 2015

Note: Actual official high and low records may vary slightly from our data, if they occured in-between our weather recording intervals... More about our weather records

Advertising

Mamoutzou weather history for previous 24 hours

 ConditionsComfort  
Time TempWeatherWind HumidityBarometerVisibility
2:00 AM
Fri, Jul 31
73 °FMild.6 mph83%29.98 "HgN/A
1:30 AM72 °FMild.6 mph83%29.98 "HgN/A
1:00 AM72 °FMild.5 mph88%30.01 "HgN/A
12:30 AM72 °FMild.2 mph88%30.01 "HgN/A
12:00 AM72 °FMild.2 mph88%30.01 "HgN/A
11:30 PM
Thu, Jul 30
73 °FMild.5 mph83%30.04 "HgN/A
11:00 PM73 °FMild.3 mph89%30.01 "HgN/A
10:30 PM73 °FMild.2 mph83%30.04 "HgN/A
10:00 PM73 °FMild.2 mph89%30.04 "HgN/A
9:30 PM73 °FMild.1 mph89%30.04 "HgN/A
9:00 PM73 °FMild.1 mph83%30.04 "HgN/A
8:30 PM73 °FMild.2 mph83%30.01 "HgN/A
8:00 PM75 °FMild.2 mph78%30.01 "HgN/A
7:30 PM75 °FMild.3 mph78%30.01 "HgN/A
7:00 PM77 °FWarm.3 mph74%30.01 "HgN/A
6:30 PM77 °FWarm.3 mph74%30.01 "HgN/A
6:00 PM79 °FPassing clouds.2 mph70%29.98 "HgN/A
5:30 PM81 °FPassing clouds.No wind66%29.98 "HgN/A
5:00 PM81 °FPassing clouds.3 mph62%29.98 "HgN/A
4:30 PM81 °FPassing clouds.3 mph66%29.98 "HgN/A
4:00 PM81 °FPassing clouds.3 mph66%29.98 "HgN/A
3:30 PM82 °FPassing clouds.5 mph58%29.98 "HgN/A
3:05 PM82 °FPassing clouds.5 mph58%29.98 "HgN/A
2:30 PM82 °FPassing clouds.6 mph58%29.98 "HgN/A
2:00 PM82 °FPassing clouds.7 mph58%30.01 "HgN/A
1:30 PM82 °FPassing clouds.6 mph62%30.01 "HgN/A
1:00 PM82 °FPassing clouds.7 mph62%30.01 "HgN/A
12:30 PM82 °FPassing clouds.6 mph62%30.04 "HgN/A
12:00 PM84 °FPassing clouds.6 mph58%30.04 "HgN/A
11:35 AM82 °FPassing clouds.6 mph62%30.04 "HgN/A
11:00 AM82 °FPassing clouds.8 mph62%30.07 "HgN/A
10:30 AM82 °FScattered clouds.7 mph62%30.07 "HgN/A
10:00 AM82 °FScattered clouds.7 mph66%30.07 "HgN/A
9:36 AM82 °FBroken clouds.7 mph66%30.07 "HgN/A
9:00 AM79 °FBroken clouds.7 mph74%30.07 "HgN/A
8:30 AM79 °FBroken clouds.6 mph79%30.07 "HgN/A
8:00 AM77 °FScattered clouds.5 mph83%30.07 "HgN/A
7:30 AM77 °FScattered clouds.5 mph83%30.04 "HgN/A
6:36 AM77 °FScattered clouds.10 mph83%30.04 "HgN/A
6:00 AM75 °FPassing clouds.8 mph83%30.01 "HgN/A
5:30 AM75 °FPassing clouds.8 mph83%30.01 "HgN/A
5:00 AM75 °FPassing clouds.7 mph83%30.01 "HgN/A
4:30 AM75 °FPassing clouds.6 mph89%30.01 "HgN/A
4:00 AM75 °FPassing clouds.6 mph83%29.98 "HgN/A
3:30 AM75 °FPartly cloudy.3 mph89%29.98 "HgN/A
3:00 AM75 °FPassing clouds.5 mph89%29.98 "HgN/A
Weather by CustomWeather, © 2015

See weather overviewHow to use our weather pages